sat.trackr.live / text

‹ back to catalog

STARLINK-36148

NORAD 67005 · 2025-293C

PAYLOAD ACTIVE UNKNOWN

§ Identity

Operator
Country
US
Launch date
2025-12-10
Launch site
AFWTR
Launch vehicle
Mass (kg)
RCS (m²)

Purposes: comms

External: N2YO · Heavens-Above · Gunter

§ Orbital elements

Epoch: 2026-09-20T21:13:32.954016Z

Period
96.11 min
Inclination
70.0022°
Eccentricity
0.0003439
Mean motion
14.98330428 rev/d
Perigee alt
569.7 km
Apogee alt
574.4 km
Semi-major
6,950.2 km
B*
-1.3930e-4
RAAN
322.4031°
Arg perigee
267.0701°
Mean anomaly
93.0065°
Rev number
4,412

§ Raw data

STARLINK-361481 67005U 25293C   26263.88440919 -.00001755  00000+0 -13930-3 0  99992 67005  70.0022 322.4031 0003439 267.0701  93.0065 14.98330428 44124

JSON: /api/v1/satellites/67005 · /tle

For live sub-satellite position, see the globe view (requires WebGL).

§ Visibility from observer

Set your observer location to see the next 7 days of passes ≥ 10°. The values pass through the URL so the page stays shareable.

No JS? Fill the form by hand. The geolocation button needs JavaScript.